Left ArrowRight Arrow

31.31129, -92.44514

Hourly Observations for June 25, 2024

Temp ( °F °C ) Dew Point ( °F °C ) Humidity (%) Winds ( mph kmh ) Pressure ( in mb ) Visibility ( mi km ) Precip ( " mm )
12:53 am 00:53 Clear 81 27.2 75 23.9 82 82 Calm 29.93 1014 9 14 0.00 0.00
1:53 am 01:53 Clear 78 25.6 75 23.9 90 90 Calm 29.93 1014 8 13 0.00 0.00
2:53 am 02:53 Clear 79 26.1 76 24.4 90 90 Calm 29.93 1013 8 13 0.00 0.00
3:53 am 03:53 Clear 78 25.6 75 23.9 90 90 Calm 29.93 1014 8 13 0.00 0.00
4:53 am 04:53 Clear 78 25.6 75 23.9 90 90 Calm 29.95 1014 9 14 0.00 0.00
5:53 am 05:53 Clear 78 25.6 75 23.9 90 90 Calm 29.96 1014 9 14 0.00 0.00
6:53 am 06:53 Sunny 78 25.6 76 24.4 93 93 W 3 6 29.97 1015 8 13 0.00 0.00
7:53 am 07:53 Sunny 81 27.2 77 25 88 88 WNW 7 11 29.98 1015 10 16 0.00 0.00
8:53 am 08:53 Mostly Sunny 85 29.4 78 25.6 80 80 W 7 11 29.98 1015 9 14 0.00 0.00
9:53 am 09:53 Sunny 88 31.1 77 25 70 70 SSW 6 9 29.98 1015 10 16 0.00 0.00
10:53 am 10:53 Sunny 89 31.7 77 25 68 68 W 5 7 29.98 1015 10 16 0.00 0.00
11:53 am 11:53 Sunny 92 33.3 74 23.3 56 56 WSW 6 9 29.98 1015 10 16 0.00 0.00
12:53 pm 12:53 Mostly Cloudy 93 33.9 74 23.3 54 54 SSW 6 9 29.97 1015 9 14 0.00 0.00
1:53 pm 13:53 Mostly Sunny 94 34.4 74 23.3 53 53 SW 6 9 29.94 1014 10 16 0.00 0.00
2:53 pm 14:53 Partly Cloudy 93 33.9 73 22.8 52 52 S 7 11 29.93 1014 10 16 0.00 0.00
3:53 pm 15:53 Mostly Sunny 96 35.6 73 22.8 48 48 undefined N/A 29.92 1013 10 16 0.00 0.00
4:53 pm 16:53 Mostly Sunny 96 35.6 73 22.8 48 48 S 7 11 29.91 1013 10 16 0.00 0.00
5:53 pm 17:53 Mostly Sunny 95 35 74 23.3 51 51 SSW 5 7 29.89 1012 10 16 0.00 0.00
6:53 pm 18:53 Sunny 94 34.4 74 23.3 53 53 S 7 11 29.88 1012 10 16 0.00 0.00
7:53 pm 19:53 Sunny 91 32.8 74 23.3 58 58 S 7 11 29.88 1012 10 16 0.00 0.00
8:53 pm 20:53 Clear 86 30 76 24.4 72 72 S 6 9 29.89 1012 10 16 0.00 0.00
9:53 pm 21:53 Clear 85 29.4 75 23.9 72 72 S 6 9 29.90 1012 10 16 0.00 0.00
10:53 pm 22:53 Clear 83 28.3 75 23.9 77 77 SSW 7 11 29.91 1013 10 16 0.00 0.00
11:53 pm 23:53 Clear 83 28.3 75 23.9 77 77 SW 6 9 29.92 1013 10 16 0.00 0.00

Powered by Vaisala Xweather